Meteo orario Abla

Oggi, 6 Marzo, Sabato

Tempo Temperatura Precipitazioni Vento Pressione Umidità
00:00 +2°C° 0 mm 3 m/s 620 mm Hg 91%
01:00 +1°C° 0 mm 3 m/s 620 mm Hg 91%
02:00 +1°C° 0 mm 3 m/s 620 mm Hg 91%
03:00 +2°C° 0 mm 2 m/s 620 mm Hg 90%
04:00 +1°C° 0 mm 3 m/s 620 mm Hg 90%
05:00 +1°C° 0 mm 3 m/s 620 mm Hg 91%
06:00 +1°C° 0 mm 3 m/s 620 mm Hg 91%
07:00 +2°C° 0 mm 3 m/s 621 mm Hg 86%
08:00 +2°C° 0 mm 3 m/s 621 mm Hg 82%
09:00 +3°C° 0 mm 3 m/s 622 mm Hg 78%
10:00 +3°C° 0.1 mm 3 m/s 622 mm Hg 77%
11:00 +3°C° 0.1 mm 4 m/s 622 mm Hg 77%
12:00 +4°C° 0.1 mm 4 m/s 622 mm Hg 77%
13:00 +3°C° 0 mm 4 m/s 621 mm Hg 79%
14:00 +3°C° 0 mm 4 m/s 621 mm Hg 81%
15:00 +3°C° 0 mm 4 m/s 621 mm Hg 83%
16:00 +3°C° 0.1 mm 4 m/s 620 mm Hg 85%
17:00 +3°C° 0.1 mm 4 m/s 620 mm Hg 88%
18:00 +1°C° 0.1 mm 4 m/s 620 mm Hg 90%
19:00 +2°C° 0.2 mm 3 m/s 620 mm Hg 90%
20:00 +2°C° 0.2 mm 3 m/s 621 mm Hg 90%
21:00 +2°C° 0.2 mm 3 m/s 621 mm Hg 90%
22:00 +3°C° 0.4 mm 2 m/s 621 mm Hg 91%
23:00 +3°C° 0.4 mm 2 m/s 621 mm Hg 92%

Domani, 7 Marzo, Domenica

Tempo Temperatura Precipitazioni Vento Pressione Umidità
00:00 +3°C° 0.4 mm 2 m/s 621 mm Hg 92%
01:00 +3°C° 1 mm 2 m/s 621 mm Hg 93%
02:00 +3°C° 1 mm 2 m/s 621 mm Hg 94%
03:00 +3°C° 1 mm 2 m/s 620 mm Hg 94%
04:00 +3°C° 1.2 mm 2 m/s 620 mm Hg 94%
05:00 +4°C° 1.2 mm 1 m/s 620 mm Hg 94%
06:00 +4°C° 1.2 mm 1 m/s 620 mm Hg 94%
07:00 +4°C° 0.9 mm 1 m/s 620 mm Hg 93%
08:00 +4°C° 0.9 mm 1 m/s 620 mm Hg 93%
09:00 +4°C° 0.9 mm 1 m/s 621 mm Hg 93%
10:00 +4°C° 0.6 mm 1 m/s 621 mm Hg 91%
11:00 +4°C° 0.6 mm 1 m/s 621 mm Hg 89%
12:00 +5°C° 0.6 mm 1 m/s 621 mm Hg 87%
13:00 +5°C° 0.4 mm 1 m/s 621 mm Hg 87%
14:00 +5°C° 0.4 mm 1 m/s 620 mm Hg 86%
15:00 +5°C° 0.4 mm 1 m/s 620 mm Hg 86%
16:00 +5°C° 0.2 mm 1 m/s 620 mm Hg 87%
17:00 +5°C° 0.2 mm 1 m/s 620 mm Hg 89%
18:00 +5°C° 0.2 mm 1 m/s 620 mm Hg 90%
19:00 +4°C° 0.3 mm 1 m/s 620 mm Hg 91%
20:00 +4°C° 0.3 mm 1 m/s 620 mm Hg 93%
21:00 +4°C° 0.3 mm 1 m/s 620 mm Hg 94%
22:00 +4°C° 1.1 mm 1 m/s 620 mm Hg 94%
23:00 +4°C° 1.1 mm 1 m/s 620 mm Hg 94%

Dopodomani, 8 Marzo, Lunedi

Tempo Temperatura Precipitazioni Vento Pressione Umidità
00:00 +3°C° 1.1 mm 1 m/s 620 mm Hg 94%
01:00 +3°C° 0.3 mm 1 m/s 619 mm Hg 93%
02:00 +3°C° 0.3 mm 1 m/s 619 mm Hg 92%
03:00 +3°C° 0.3 mm 1 m/s 619 mm Hg 91%
04:00 +3°C° 0.1 mm 1 m/s 619 mm Hg 91%
05:00 +2°C° 0.1 mm 1 m/s 618 mm Hg 92%
06:00 +2°C° 0.1 mm 1 m/s 618 mm Hg 93%
07:00 +3°C° 0.1 mm 1 m/s 619 mm Hg 87%
08:00 +4°C° 0.1 mm 1 m/s 619 mm Hg 82%
09:00 +5°C° 0.1 mm 1 m/s 620 mm Hg 76%
10:00 +6°C° 0.3 mm 1 m/s 620 mm Hg 73%
11:00 +5°C° 0.3 mm 2 m/s 620 mm Hg 70%
12:00 +6°C° 0.3 mm 2 m/s 621 mm Hg 67%
13:00 +6°C° 0.4 mm 2 m/s 620 mm Hg 66%
14:00 +6°C° 0.4 mm 2 m/s 620 mm Hg 65%
15:00 +5°C° 0.4 mm 3 m/s 620 mm Hg 65%
16:00 +6°C° 0.5 mm 2 m/s 620 mm Hg 69%
17:00 +5°C° 0.5 mm 2 m/s 620 mm Hg 74%
18:00 +4°C° 0.5 mm 2 m/s 619 mm Hg 79%
19:00 +5°C° 0.4 mm 1 m/s 620 mm Hg 82%
20:00 +4°C° 0.4 mm 1 m/s 620 mm Hg 85%
21:00 +4°C° 0.4 mm 1 m/s 620 mm Hg 89%
22:00 +4°C° 0.4 mm 1 m/s 620 mm Hg 89%
23:00 +3°C° 0.4 mm 1 m/s 620 mm Hg 89%

9 Marzo, Martedi

Tempo Temperatura Precipitazioni Vento Pressione Umidità
00:00 +2°C° 0.4 mm 0 m/s 620 mm Hg 90%
01:00 +2°C° 0.3 mm 0 m/s 620 mm Hg 90%
02:00 +1°C° 0.3 mm 0 m/s 619 mm Hg 91%
03:00 +2°C° 0.3 mm 1 m/s 619 mm Hg 92%
04:00 +1°C° 0.3 mm 0 m/s 619 mm Hg 92%
05:00 0°C° 0.3 mm 0 m/s 619 mm Hg 92%
06:00 0°C° 0.3 mm 0 m/s 619 mm Hg 92%
07:00 +2°C° 0.2 mm 1 m/s 620 mm Hg 88%
08:00 +3°C° 0.2 mm 1 m/s 621 mm Hg 83%
09:00 +4°C° 0.2 mm 1 m/s 621 mm Hg 79%
10:00 +4°C° 0.5 mm 2 m/s 622 mm Hg 78%
11:00 +4°C° 0.5 mm 2 m/s 622 mm Hg 77%
12:00 +5°C° 0.5 mm 2 m/s 622 mm Hg 76%
13:00 +5°C° 0.7 mm 2 m/s 622 mm Hg 76%
14:00 +5°C° 0.7 mm 2 m/s 622 mm Hg 76%
15:00 +5°C° 0.7 mm 2 m/s 622 mm Hg 77%
16:00 +4°C° 0.3 mm 2 m/s 622 mm Hg 79%
17:00 +4°C° 0.3 mm 2 m/s 622 mm Hg 81%
18:00 +5°C° 0.3 mm 1 m/s 622 mm Hg 83%
19:00 +4°C° 0.1 mm 1 m/s 622 mm Hg 85%
20:00 +4°C° 0.1 mm 1 m/s 622 mm Hg 88%
21:00 +4°C° 0.1 mm 1 m/s 623 mm Hg 91%
22:00 +2°C° 0.1 mm 0 m/s 623 mm Hg 91%
23:00 +2°C° 0.1 mm 0 m/s 623 mm Hg 91%

10 Marzo, Mercoledi

Tempo Temperatura Precipitazioni Vento Pressione Umidità
00:00 +2°C° 0.1 mm 0 m/s 623 mm Hg 92%
01:00 +1°C° 0 mm 0 m/s 623 mm Hg 92%
02:00 +2°C° 0 mm 1 m/s 622 mm Hg 92%
03:00 +2°C° 0 mm 1 m/s 622 mm Hg 92%
04:00 +1°C° 0 mm 1 m/s 622 mm Hg 92%
05:00 +1°C° 0 mm 1 m/s 622 mm Hg 92%
06:00 +1°C° 0 mm 1 m/s 623 mm Hg 92%
07:00 +2°C° 0 mm 1 m/s 624 mm Hg 86%
08:00 +4°C° 0 mm 1 m/s 624 mm Hg 80%
09:00 +5°C° 0 mm 1 m/s 625 mm Hg 74%
10:00 +6°C° 0 mm 1 m/s 626 mm Hg 69%
11:00 +7°C° 0 mm 1 m/s 626 mm Hg 63%
12:00 +7°C° 0 mm 2 m/s 627 mm Hg 58%
13:00 +7°C° 0 mm 2 m/s 627 mm Hg 58%
14:00 +7°C° 0 mm 2 m/s 626 mm Hg 58%
15:00 +7°C° 0 mm 2 m/s 626 mm Hg 59%
16:00 +7°C° 0 mm 2 m/s 626 mm Hg 62%
17:00 +7°C° 0 mm 1 m/s 626 mm Hg 65%
18:00 +7°C° 0 mm 1 m/s 626 mm Hg 68%
19:00 +6°C° 0 mm 1 m/s 626 mm Hg 70%
20:00 +5°C° 0 mm 1 m/s 626 mm Hg 72%
21:00 +4°C° 0 mm 1 m/s 626 mm Hg 75%
22:00 +4°C° 0 mm 1 m/s 626 mm Hg 74%
23:00 +4°C° 0 mm 1 m/s 626 mm Hg 72%

11 Marzo, Giovedi

Tempo Temperatura Precipitazioni Vento Pressione Umidità
00:00 +3°C° 0 mm 1 m/s 626 mm Hg 71%
01:00 +3°C° 0 mm 1 m/s 625 mm Hg 70%
02:00 +3°C° 0 mm 1 m/s 625 mm Hg 70%
03:00 +2°C° 0 mm 1 m/s 625 mm Hg 69%
04:00 +2°C° 0 mm 1 m/s 625 mm Hg 69%
05:00 +2°C° 0 mm 1 m/s 625 mm Hg 68%
06:00 +2°C° 0 mm 1 m/s 624 mm Hg 68%
07:00 +3°C° 0 mm 0 m/s 625 mm Hg 61%
08:00 +5°C° 0 mm 0 m/s 627 mm Hg 54%
09:00 +7°C° 0 mm 0 m/s 628 mm Hg 47%
10:00 +9°C° 0 mm 1 m/s 628 mm Hg 45%
11:00 +10°C° 0 mm 1 m/s 628 mm Hg 44%
12:00 +11°C° 0 mm 1 m/s 629 mm Hg 42%
13:00 +10°C° 0 mm 2 m/s 629 mm Hg 44%
14:00 +10°C° 0 mm 2 m/s 628 mm Hg 45%
15:00 +12°C° 0 mm 2 m/s 628 mm Hg 46%
16:00 +11°C° 0 mm 1 m/s 627 mm Hg 51%
17:00 +10°C° 0 mm 1 m/s 627 mm Hg 56%
18:00 +9°C° 0 mm 1 m/s 627 mm Hg 62%
19:00 +8°C° 0 mm 1 m/s 626 mm Hg 64%
20:00 +7°C° 0 mm 1 m/s 626 mm Hg 67%
21:00 +5°C° 0 mm 0 m/s 626 mm Hg 69%
22:00 +5°C° 0 mm 0 m/s 626 mm Hg 69%
23:00 +5°C° 0 mm 0 m/s 626 mm Hg 68%
Mostrare altro

Abbiamo bisogno del tuo consenso

Meteoprog e i nostri fornitori di servizi possono memorizzare e accedere a dati personali come cookie, identificatori di dispositivi o altre tecnologie simili sul tuo dispositivo e possono elaborare tali dati per personalizzare i contenuti e gli annunci, nonché fornire funzionalità dei social media e analizzarne il traffico.

  • Archiviare e/o accedere alle informazioni sul tuo dispositivo

    Cookie, identificatori di dispositivi o altre informazioni possono essere memorizzati o resi accessibili sul tuo dispositivo per le finalità sopra indicate.

  • Annunci e contenuti personalizzati, misurazione di annunci e contenuti, approfondimenti sul pubblico e sviluppo di prodotti

    Gli annunci e i contenuti possono essere personalizzati in base a un profilo. È possibile aggiungere più dati per personalizzare meglio annunci e contenuti. È possibile misurare il rendimento degli annunci e dei contenuti. È possibile ricavare informazioni sul pubblico che ha visto gli annunci e i contenuti. Tali dati possono essere utilizzati per sviluppare o migliorare l'esperienza, i sistemi e il software dell'utente.

Cliccando su “Accetto”, acconsenti all'uso di cookie, identificatori di dispositivo, web beacon o altre tecnologie simili. Puoi modificare le impostazioni nel browser del tuo dispositivo.

Per determinati scopi, è possibile fare affidamento su interessi legali, piuttosto che sul consenso. Puoi approfondire questo argomento consultando la nostra Informativa sulla privacy e sui cookie.